Location: Newcastle Observatory
(43.9158°N, 78.5831°W)
Time: 23:42:38
(UTC-04:00)

Amateur Radio Satellites - All Passes

Search period start: 25 June 2017 23:12
Search period end: 26 June 2017 23:12
Location: Newcastle Observatory, 43.9158°N, 78.5831°W

Satellite Date Start Highest point End Downlink Frequencies (MHz)
Time Altitude Azimuth
FO-29 25 Jun 23:12:46 23:20:39 84° 104° (ESE) 23:28:27 435.910
M-CUBED/EXP-1 PRIME 25 Jun 23:17:27 23:21:09 76° 290° (WNW) 23:25:08 437.505
RS-15 25 Jun 23:18:11 23:30:11 57° 316° (NW) 23:42:20 29.354- 29.394
YUBILEINY 25 Jun 23:22:32 23:31:14 64° 282° (WNW) 23:40:03 435.215
DELFI C3 25 Jun 23:23:03 23:24:38 12° 270° (W) 23:26:11 145.870
PRISM 25 Jun 23:36:37 23:40:41 65° 286° (WNW) 23:44:45 437.425
PCSat 25 Jun 23:40:00 23:41:45 12° 258° (WSW) 23:43:30 145.827
TIGRISAT 25 Jun 23:48:31 23:53:06 56° 287° (WNW) 23:57:35 435.000
QB50P2 25 Jun 23:52:26 23:54:10 12° 89° (E) 23:55:55 145.880/145.840
BEESAT 2 25 Jun 23:53:10 23:56:05 19° 319° (NW) 23:59:02 435.950
AIST 2D 26 Jun 00:00:55 00:03:55 26° 96° (E) 00:06:54 435.315
O/OREOS (USA 219) 26 Jun 00:00:58 00:03:16 14° 311° (NW) 00:05:35 437.305
SO-50 26 Jun 00:13:38 00:17:53 41° 242° (WSW) 00:22:09 436.795
ESTCUBE 1 26 Jun 00:15:25 00:19:48 53° 260° (W) 00:24:13 437.505/2401.250
EO-79 26 Jun 00:15:39 00:18:50 20° 93° (E) 00:22:00 145.935-145.965
VELOX 1 26 Jun 00:16:00 00:20:04 39° 70° (ENE) 00:24:09 145.980
50 SAT 26 Jun 00:23:37 00:25:57 18° 67° (ENE) 00:28:17 437.505
NO-84 26 Jun 00:25:43 00:29:14 26° 341° (NNW) 00:32:54 435.350 FM
DUCHIFAT 1 26 Jun 00:29:10 00:32:32 23° 94° (E) 00:35:54 145.980
UNISAT 6 26 Jun 00:31:32 00:35:03 21° 296° (WNW) 00:38:31 437.425
SPROUT 26 Jun 00:34:40 00:38:54 66° 74° (ENE) 00:43:10 437.525
DX 1 26 Jun 00:35:29 00:38:50 22° 65° (ENE) 00:42:12 434.975-435.025
NANOSAT C BR1 26 Jun 00:37:32 00:41:21 31° 97° (E) 00:45:07 145.865
LO-87 26 Jun 00:39:36 00:41:22 13° 269° (W) 00:43:08 145.935 - 145.965
UKube-1 26 Jun 00:51:59 00:55:20 23° 65° (ENE) 00:58:41 .
FO-29 26 Jun 00:58:52 01:04:47 25° 303° (WNW) 01:10:45 435.910
POLYITAN 1 26 Jun 01:15:13 01:19:32 89° 113° (ESE) 01:23:48 437.675
YUBILEINY 26 Jun 01:25:50 01:30:08 14° 306° (NW) 01:34:27 435.215
QB50P2 26 Jun 01:26:08 01:30:23 64° 286° (WNW) 01:34:36 145.880/145.840
AIST 2D 26 Jun 01:34:24 01:36:59 19° 292° (WNW) 01:39:32 435.315
RS-15 26 Jun 01:35:52 01:46:12 29° 347° (NNW) 01:56:27 29.354- 29.394
BUGSAT 1 26 Jun 01:37:30 01:41:29 38° 98° (E) 01:45:26 437.445
EO-79 26 Jun 01:50:45 01:54:43 38° 290° (WNW) 01:58:40 145.935-145.965
VELOX 1 26 Jun 01:53:22 01:56:39 21° 267° (W) 01:59:58 145.980
Oscar 19 26 Jun 01:54:01 01:58:04 23° 93° (E) 02:02:06 437.125/150
50 SAT 26 Jun 01:55:38 01:58:33 27° 263° (W) 02:01:29 437.505
DUCHIFAT 1 26 Jun 02:04:25 02:08:16 33° 291° (WNW) 02:12:04 145.980
NO-84 26 Jun 02:04:55 02:07:59 19° 2° (N) 02:11:07 435.350 FM
DX 1 26 Jun 02:10:48 02:14:48 36° 262° (W) 02:18:50 434.975-435.025
NANOSAT C BR1 26 Jun 02:13:25 02:16:55 25° 293° (WNW) 02:20:24 145.865
SPROUT 26 Jun 02:13:38 02:15:14 12° 271° (W) 02:16:51 437.525
ITUPSAT 1 26 Jun 02:16:40 02:20:06 20° 62° (ENE) 02:23:32 437.325
BEESAT 26 Jun 02:25:56 02:29:45 24° 64° (ENE) 02:33:34 436.000
UKube-1 26 Jun 02:27:12 02:31:09 35° 262° (W) 02:35:08 .
Gurwin Techsat 1B 26 Jun 02:49:40 02:54:49 47° 99° (E) 02:59:56 435.225
POLYITAN 1 26 Jun 02:54:08 02:54:36 10° 301° (WNW) 02:55:04 437.675
BUGSAT 1 26 Jun 03:13:23 03:16:36 21° 295° (WNW) 03:19:47 437.445
MOZHAYETS 4 26 Jun 03:29:30 03:34:04 60° 73° (ENE) 03:38:38
Oscar 19 26 Jun 03:32:43 03:37:35 45° 291° (WNW) 03:42:27 437.125/150
NO-84 26 Jun 03:42:46 03:46:39 30° 23° (NNE) 03:50:33 435.350 FM
ITUPSAT 1 26 Jun 03:52:50 03:57:32 52° 260° (W) 04:02:15 437.325
RS-15 26 Jun 03:52:54 04:03:42 33° 22° (NNE) 04:14:09 29.354- 29.394
BEESAT 26 Jun 04:02:46 04:07:17 41° 262° (W) 04:11:50 436.000
AO-85 26 Jun 04:09:14 04:11:29 14° 38° (NE) 04:13:47 145.980
ITAMSAT 1 26 Jun 04:11:02 04:15:50 35° 97° (E) 04:20:35 435.822/435.867
CUBESAT XI-V 26 Jun 04:12:09 04:16:15 32° 68° (ENE) 04:20:22 437.345
AO-7 26 Jun 04:18:14 04:26:09 44° 99° (E) 04:34:00 .
Gurwin Techsat 1B 26 Jun 04:30:12 04:34:29 25° 297° (WNW) 04:38:44 435.225
BEESAT 2 26 Jun 04:55:28 04:55:42 10° 31° (NNE) 04:55:56 435.950
KKS-1 26 Jun 04:59:54 05:04:17 69° 74° (ENE) 05:08:44 437.445
MOZHAYETS 4 26 Jun 05:08:56 05:11:36 15° 270° (W) 05:14:17
NO-84 26 Jun 05:20:13 05:24:36 70° 222° (SW) 05:28:51 435.350 FM
STARS 26 Jun 05:28:17 05:32:35 59° 73° (ENE) 05:36:56 437.465
BEESAT 3 26 Jun 05:30:22 05:34:08 36° 49° (NE) 05:37:49 437.485
AO-85 26 Jun 05:48:18 05:52:24 89° 252° (WSW) 05:56:47 145.980
CUBESAT XI-V 26 Jun 05:49:39 05:53:37 28° 265° (W) 05:57:36 437.345
ITAMSAT 1 26 Jun 05:50:35 05:55:12 32° 295° (WNW) 05:59:47 435.822/435.867
RS-15 26 Jun 06:06:23 06:18:41 75° 52° (NE) 06:30:18 29.354- 29.394
AO-7 26 Jun 06:11:03 06:18:56 48° 299° (WNW) 06:26:48 .
XW-2F 26 Jun 06:17:28 06:18:06 10° 89° (E) 06:18:43 145.980 - 146.000
XW-2D 26 Jun 06:20:49 06:22:34 13° 90° (E) 06:24:18 145.860 - 145.880
LilacSat-2 26 Jun 06:29:08 06:31:37 17° 92° (E) 06:34:06 437.200
XW-2B 26 Jun 06:29:20 06:31:40 16° 92° (E) 06:33:58 145.730 - 145.750
BEESAT 2 26 Jun 06:30:23 06:34:24 53° 52° (NE) 06:38:20 435.950
STRAND 1 26 Jun 06:36:45 06:40:37 22° 62° (ENE) 06:44:29 437.568
KKS-1 26 Jun 06:39:38 06:41:19 12° 271° (W) 06:43:01 437.445
XW-2C 26 Jun 06:44:14 06:47:19 23° 95° (E) 06:50:22 145.795 - 145.815
O/OREOS (USA 219) 26 Jun 06:48:41 06:52:16 23° 55° (NE) 06:55:50 437.305
DOVE 4 26 Jun 06:53:04 06:57:59 74° 102° (ESE) 07:03:08 437.250
KAITUO 1B 26 Jun 06:56:56 07:00:04 25° 95° (E) 07:03:10 145.475/437.950
CUTE-I 26 Jun 06:57:37 07:02:26 32° 96° (E) 07:07:13 437.470
NO-84 26 Jun 07:00:21 07:01:26 11° 239° (WSW) 07:02:32 435.350 FM
STARS 26 Jun 07:07:03 07:09:19 14° 270° (W) 07:11:35 437.465
BEESAT 3 26 Jun 07:08:19 07:11:30 23° 247° (WSW) 07:14:40 437.485
Tancredo 1 26 Jun 07:28:37 07:29:28 11° 131° (SE) 07:30:19 437.200
NUDT-PHONESAT 26 Jun 07:31:24 07:35:06 67° 101° (E) 07:38:46 437.300
CUTE 1.7 + AOD 2 26 Jun 07:31:27 07:33:37 14° 90° (E) 07:35:47 437.475
YUBILEINY 26 Jun 07:36:04 07:41:05 16° 56° (NE) 07:46:02 435.215
HO-68 26 Jun 07:39:28 07:45:19 26° 93° (E) 07:51:06 435.675
XW-2F 26 Jun 07:48:54 07:52:35 57° 286° (WNW) 07:56:15 145.980 - 146.000
CUBEBUG 2 26 Jun 07:49:12 07:51:15 13° 88° (E) 07:53:17 437.445
XW-2D 26 Jun 07:53:23 07:57:01 46° 287° (WNW) 08:00:36 145.860 - 145.880
ISS 26 Jun 07:55:05 07:55:52 11° 130° (SE) 07:56:39 437.550
XW-2B 26 Jun 08:02:30 08:06:01 37° 288° (WNW) 08:09:29 145.730 - 145.750
LilacSat-2 26 Jun 08:02:33 08:06:03 35° 289° (WNW) 08:09:29 437.200
AO-7 26 Jun 08:06:35 08:09:39 12° 321° (NW) 08:12:44 .
BEESAT 2 26 Jun 08:09:14 08:11:44 16° 249° (WSW) 08:14:13 435.950
XW-2A 26 Jun 08:12:04 08:14:55 24° 95° (E) 08:17:43 145.665 - 145.685
STRAND 1 26 Jun 08:14:24 08:19:25 53° 260° (W) 08:24:28 437.568
XW-2C 26 Jun 08:18:20 08:21:27 25° 292° (WNW) 08:24:34 145.795 - 145.815
RS-15 26 Jun 08:19:52 08:30:05 35° 256° (WSW) 08:39:55 29.354- 29.394
UWE-3 26 Jun 08:20:55 08:23:45 16° 90° (E) 08:26:31 435.000/436.395/437.385
O/OREOS (USA 219) 26 Jun 08:27:38 08:31:49 40° 254° (WSW) 08:35:59 437.305
KAITUO 1B 26 Jun 08:31:01 08:33:58 23° 292° (WNW) 08:36:54 145.475/437.950
DOVE 4 26 Jun 08:32:17 08:35:08 16° 298° (WNW) 08:38:03 437.250
M-CUBED/EXP-1 PRIME 26 Jun 08:32:58 08:34:24 12° 59° (ENE) 08:35:51 437.505
CUTE-I 26 Jun 08:37:36 08:42:28 36° 293° (WNW) 08:47:19 437.470
SEEDS 26 Jun 08:46:52 08:51:00 59° 101° (E) 08:55:05 437.485
PRISM 26 Jun 08:55:14 08:56:07 11° 60° (ENE) 08:56:59 437.425
Tancredo 1 26 Jun 09:01:34 09:04:36 89° 105° (ESE) 09:07:38 437.200
CUTE 1.7 + AOD 2 26 Jun 09:05:41 09:09:47 54° 287° (WNW) 09:13:52 437.475
TIGRISAT 26 Jun 09:13:07 09:16:11 18° 62° (ENE) 09:19:17 435.000
AO-73 26 Jun 09:14:14 09:18:05 28° 95° (E) 09:21:49 145.935
CUBEBUG 2 26 Jun 09:23:40 09:28:23 72° 286° (WNW) 09:32:58 437.445
FO-29 26 Jun 09:26:25 09:32:11 43° 65° (ENE) 09:38:43 435.910
HO-68 26 Jun 09:26:25 09:33:30 64° 292° (WNW) 09:40:32 435.675
ISS 26 Jun 09:28:34 09:31:50 80° 145° (SE) 09:35:08 437.550
YUBILEINY 26 Jun 09:30:53 09:39:46 71° 79° (E) 09:48:31 435.215
AAUSAT CUBESAT 2 26 Jun 09:35:48 09:39:55 84° 285° (WNW) 09:44:02 437.432
Oscar 11 26 Jun 09:40:20 09:44:25 40° 98° (E) 09:48:28 .
XW-2A 26 Jun 09:44:58 09:47:31 20° 292° (WNW) 09:50:03 145.665 - 145.685
ZACube-1 26 Jun 09:49:17 09:53:47 75° 102° (ESE) 09:58:08 437.345
UNISAT 6 26 Jun 09:53:49 09:58:12 45° 71° (ENE) 10:02:41 437.425
UWE-3 26 Jun 09:56:02 10:00:33 54° 287° (WNW) 10:04:55 435.000/436.395/437.385
M-CUBED/EXP-1 PRIME 26 Jun 10:05:27 10:08:34 40° 255° (WSW) 10:11:40 437.505
EO-88 26 Jun 10:10:50 10:12:45 14° 91° (E) 10:14:39 145.990 - 145.960
SEEDS 26 Jun 10:24:05 10:26:12 14° 297° (WNW) 10:28:19 437.485
PRISM 26 Jun 10:26:44 10:30:47 77° 257° (WSW) 10:34:51 437.425
AIST 2D 26 Jun 10:37:41 10:39:28 13° 65° (ENE) 10:41:15 435.315
Tancredo 1 26 Jun 10:37:57 10:40:28 23° 346° (NNW) 10:43:01 437.200
QB50P2 26 Jun 10:46:49 10:48:31 12° 61° (ENE) 10:50:14 145.880/145.840
TIGRISAT 26 Jun 10:47:53 10:52:24 56° 260° (W) 10:57:02 435.000
AO-73 26 Jun 10:50:25 10:54:16 29° 292° (WNW) 10:58:00 145.935
DELFI C3 26 Jun 10:55:38 10:59:36 75° 102° (ESE) 11:03:32 145.870
ISS 26 Jun 11:05:45 11:08:36 26° 345° (NNW) 11:11:28 437.550
EO-79 26 Jun 11:09:32 11:12:32 19° 64° (ENE) 11:15:33 145.935-145.965
FO-29 26 Jun 11:11:48 11:17:21 35° 267° (W) 11:23:35 435.910
HO-68 26 Jun 11:16:25 11:19:52 14° 312° (NW) 11:23:19 435.675
Oscar 11 26 Jun 11:17:07 11:20:16 20° 295° (WNW) 11:23:25 .
DUCHIFAT 1 26 Jun 11:22:21 11:25:31 21° 65° (ENE) 11:28:42 145.980
ZACube-1 26 Jun 11:27:28 11:29:24 13° 300° (WNW) 11:31:19 437.345
YUBILEINY 26 Jun 11:28:50 11:35:43 27° 280° (W) 11:42:34 435.215
NANOSAT C BR1 26 Jun 11:30:47 11:34:24 28° 68° (ENE) 11:38:03 145.865
UNISAT 6 26 Jun 11:31:44 11:35:07 20° 268° (W) 11:38:34 437.425
EO-88 26 Jun 11:43:11 11:46:37 40° 288° (WNW) 11:50:02 145.990 - 145.960
LO-87 26 Jun 12:02:59 12:06:27 41° 99° (E) 12:09:55 145.935 - 145.965
ESTCUBE 1 26 Jun 12:06:35 12:10:27 28° 95° (E) 12:14:18 437.505/2401.250
POLYITAN 1 26 Jun 12:08:32 12:12:48 78° 75° (ENE) 12:17:07 437.675
AIST 2D 26 Jun 12:08:55 12:12:19 42° 262° (W) 12:15:43 435.315
Tancredo 1 26 Jun 12:14:27 12:16:47 20° 7° (N) 12:19:06 437.200
QB50P2 26 Jun 12:19:28 12:23:43 73° 258° (WSW) 12:28:00 145.880/145.840
BUGSAT 1 26 Jun 12:28:21 12:32:01 31° 69° (ENE) 12:35:45 437.445
DELFI C3 26 Jun 12:33:16 12:33:46 10° 299° (WNW) 12:34:15 145.870
Gurwin Techsat 1B 26 Jun 12:35:48 12:38:15 13° 56° (ENE) 12:40:41 435.225
PCSat 26 Jun 12:36:25 12:41:48 70° 117° (ESE) 12:47:13 145.827
ISS 26 Jun 12:43:11 12:45:49 21° 6° (N) 12:48:27 437.550
EO-79 26 Jun 12:43:57 12:47:59 43° 261° (W) 12:52:05 145.935-145.965
DUCHIFAT 1 26 Jun 12:56:59 13:00:55 38° 262° (W) 13:04:55 145.980
NANOSAT C BR1 26 Jun 13:06:25 13:10:03 27° 264° (W) 13:13:43 145.865
Oscar 19 26 Jun 13:11:54 13:16:41 40° 68° (ENE) 13:21:27 437.125/150
50 SAT 26 Jun 13:17:09 13:19:04 14° 93° (E) 13:20:59 437.505
AO-7 26 Jun 13:30:25 13:35:22 17° 44° (NE) 13:40:19 .
LO-87 26 Jun 13:37:31 13:39:33 14° 295° (WNW) 13:41:35 145.935 - 145.965
VELOX 1 26 Jun 13:40:20 13:44:46 65° 102° (ESE) 13:49:10 145.980
ESTCUBE 1 26 Jun 13:43:19 13:47:13 30° 292° (WNW) 13:51:06 437.505/2401.250
Tancredo 1 26 Jun 13:49:53 13:52:52 48° 26° (NNE) 13:55:49 437.200
SPROUT 26 Jun 13:54:32 13:58:52 78° 285° (WNW) 14:03:09 437.525
DX 1 26 Jun 13:57:13 14:01:09 32° 97° (E) 14:05:05 434.975-435.025
BUGSAT 1 26 Jun 14:04:03 14:07:24 23° 266° (W) 14:10:47 437.445
Gurwin Techsat 1B 26 Jun 14:12:03 14:17:23 85° 74° (ENE) 14:22:44 435.225
UKube-1 26 Jun 14:12:28 14:16:21 31° 97° (E) 14:20:12 .
ISS 26 Jun 14:19:38 14:22:51 48° 25° (NNE) 14:26:04 437.550
PCSat 26 Jun 14:21:28 14:25:43 23° 318° (NW) 14:30:00 145.827
SO-50 26 Jun 14:28:42 14:33:01 44° 118° (ESE) 14:37:19 436.795
50 SAT 26 Jun 14:48:53 14:51:59 33° 289° (WNW) 14:55:05 437.505
Oscar 19 26 Jun 14:51:45 14:56:06 27° 265° (W) 15:00:27 437.125/150
VELOX 1 26 Jun 15:18:19 15:20:41 14° 299° (WNW) 15:23:03 145.980
AO-7 26 Jun 15:18:24 15:26:36 66° 66° (ENE) 15:34:52 .
MOZHAYETS 4 26 Jun 15:25:01 15:26:56 12° 89° (E) 15:28:50
Tancredo 1 26 Jun 15:25:50 15:28:16 22° 224° (SW) 15:30:42 437.200
ITAMSAT 1 26 Jun 15:30:09 15:35:17 62° 72° (ENE) 15:40:27 435.822/435.867
DX 1 26 Jun 15:33:37 15:37:13 25° 294° (WNW) 15:40:48 434.975-435.025
UKube-1 26 Jun 15:48:41 15:52:14 25° 294° (WNW) 15:55:47 .
ITUPSAT 1 26 Jun 15:51:54 15:56:18 35° 97° (E) 16:00:39 437.325
Gurwin Techsat 1B 26 Jun 15:55:45 15:58:00 13° 272° (W) 16:00:15 435.225
ISS 26 Jun 15:56:23 15:59:12 26° 223° (SW) 16:01:59 437.550
BEESAT 26 Jun 16:01:05 16:05:40 44° 99° (E) 16:10:12 436.000
SO-50 26 Jun 16:09:45 16:13:38 27° 317° (NW) 16:17:30 436.795
KKS-1 26 Jun 16:51:26 16:53:06 12° 89° (E) 16:54:47 437.445
MOZHAYETS 4 26 Jun 17:00:00 17:04:35 70° 286° (WNW) 17:09:07
ITAMSAT 1 26 Jun 17:11:45 17:15:10 18° 269° (W) 17:18:37 435.822/435.867
AO-7 26 Jun 17:12:54 17:19:54 30° 265° (W) 17:26:59 .
XW-2B 26 Jun 17:13:36 17:14:28 11° 62° (ENE) 17:15:19 145.730 - 145.750
LilacSat-2 26 Jun 17:13:38 17:15:00 12° 62° (ENE) 17:16:21 437.200
XW-2C 26 Jun 17:27:31 17:29:51 16° 65° (ENE) 17:32:11 145.795 - 145.815
ITUPSAT 1 26 Jun 17:29:56 17:34:00 28° 294° (WNW) 17:38:01 437.325
KAITUO 1B 26 Jun 17:38:55 17:41:16 16° 65° (ENE) 17:43:37 145.475/437.950
BEESAT 26 Jun 17:39:27 17:43:09 23° 296° (WNW) 17:46:51 436.000
CUBESAT XI-V 26 Jun 17:43:43 17:48:18 64° 101° (E) 17:52:52 437.345
DOVE 4 26 Jun 18:00:13 18:04:23 81° 75° (ENE) 18:08:43 437.250
HO-68 26 Jun 18:10:20 18:15:52 25° 56° (NE) 18:21:23 435.675
NUDT-PHONESAT 26 Jun 18:11:43 18:15:11 36° 71° (ENE) 18:18:39 437.300
CUTE-I 26 Jun 18:20:37 18:25:51 60° 71° (ENE) 18:31:08 437.470
KKS-1 26 Jun 18:25:39 18:30:09 72° 286° (WNW) 18:34:36 437.445
CUTE 1.7 + AOD 2 26 Jun 18:26:02 18:27:58 13° 62° (ENE) 18:29:55 437.475
XW-2F 26 Jun 18:30:25 18:34:15 78° 75° (ENE) 18:38:04 145.980 - 146.000
XW-2D 26 Jun 18:35:12 18:39:03 84° 261° (W) 18:42:54 145.860 - 145.880
XW-2B 26 Jun 18:44:17 18:48:06 68° 259° (W) 18:51:55 145.730 - 145.750
LilacSat-2 26 Jun 18:44:56 18:48:46 62° 259° (W) 18:52:36 437.200
XW-2A 26 Jun 18:46:09 18:47:24 12° 64° (ENE) 18:48:40 145.665 - 145.685
CUBEBUG 2 26 Jun 18:48:37 18:50:57 14° 60° (ENE) 18:53:19 437.445
STARS 26 Jun 18:52:09 18:56:37 86° 287° (WNW) 19:01:04 437.465
XW-2C 26 Jun 19:00:02 19:03:42 42° 262° (W) 19:07:23 145.795 - 145.815
KAITUO 1B 26 Jun 19:11:23 19:14:57 39° 262° (W) 19:18:32 145.475/437.950
UWE-3 26 Jun 19:19:09 19:22:06 17° 62° (ENE) 19:25:04 435.000/436.395/437.385
CUBESAT XI-V 26 Jun 19:22:32 19:25:09 15° 298° (WNW) 19:27:47 437.345
SEEDS 26 Jun 19:39:28 19:43:30 47° 72° (ENE) 19:47:32 437.485
PCSat 26 Jun 19:40:39 19:44:01 16° 36° (NE) 19:47:22 145.827
NUDT-PHONESAT 26 Jun 19:46:44 19:49:12 17° 268° (W) 19:51:39 437.300
HO-68 26 Jun 19:55:42 20:02:53 75° 255° (WSW) 20:10:08 435.675
CUTE 1.7 + AOD 2 26 Jun 19:59:02 20:03:16 67° 260° (W) 20:07:30 437.475
CUTE-I 26 Jun 20:02:37 20:06:18 19° 269° (W) 20:10:01 437.470
AO-85 26 Jun 20:05:22 20:08:12 18° 113° (ESE) 20:10:58 145.980
AO-73 26 Jun 20:10:37 20:14:29 27° 67° (ENE) 20:18:21 145.935
XW-2A 26 Jun 20:16:24 20:19:44 47° 261° (W) 20:23:05 145.665 - 145.685
CUBEBUG 2 26 Jun 20:22:18 20:26:54 76° 258° (WSW) 20:31:40 437.445
STRAND 1 26 Jun 20:23:20 20:28:20 47° 99° (E) 20:33:16 437.568
AAUSAT CUBESAT 2 26 Jun 20:26:41 20:30:47 74° 75° (ENE) 20:34:55 437.432
RS-15 26 Jun 20:31:02 20:41:56 42° 107° (ESE) 20:53:00 29.354- 29.394
STARS 26 Jun 20:31:34 20:32:13 10° 302° (WNW) 20:32:52 437.465
Oscar 11 26 Jun 20:36:10 20:40:10 37° 70° (ENE) 20:44:10 .
YUBILEINY 26 Jun 20:41:48 20:46:26 16° 74° (ENE) 20:51:04 435.215
ZACube-1 26 Jun 20:45:35 20:50:06 68° 75° (ENE) 20:54:42 437.345
UWE-3 26 Jun 20:53:31 20:58:03 59° 260° (W) 21:02:41 435.000/436.395/437.385
BEESAT 3 26 Jun 20:58:17 21:01:58 37° 117° (ESE) 21:05:42 437.485
O/OREOS (USA 219) 26 Jun 21:03:08 21:06:19 19° 101° (E) 21:09:29 437.305
SEEDS 26 Jun 21:16:52 21:19:25 16° 269° (W) 21:21:59 437.485
SO-50 26 Jun 21:19:30 21:21:26 12° 31° (NNE) 21:23:22 436.795
PCSat 26 Jun 21:22:55 21:28:22 75° 58° (ENE) 21:33:47 145.827
DELFI C3 26 Jun 21:42:01 21:45:47 48° 73° (ENE) 21:49:34 145.870
AO-85 26 Jun 21:44:26 21:48:17 43° 310° (NW) 21:52:04 145.980
AO-73 26 Jun 21:46:30 21:50:35 32° 264° (W) 21:54:43 145.935
HO-68 26 Jun 21:48:36 21:51:46 13° 274° (W) 21:54:56 435.675
BEESAT 2 26 Jun 21:59:53 22:03:48 60° 121° (ESE) 22:07:48 435.950
STRAND 1 26 Jun 22:03:08 22:07:12 24° 297° (WNW) 22:11:15 437.568
PRISM 26 Jun 22:08:12 22:10:02 13° 91° (E) 22:11:52 437.425
Oscar 11 26 Jun 22:13:04 22:16:24 21° 267° (W) 22:19:45 .
NO-84 26 Jun 22:14:43 22:18:36 73° 139° (SE) 22:22:49 435.350 FM
FO-29 26 Jun 22:18:11 22:25:27 39° 95° (E) 22:32:35 435.910
EO-88 26 Jun 22:21:30 22:25:11 82° 257° (WSW) 22:28:53 145.990 - 145.960
ZACube-1 26 Jun 22:24:41 22:26:50 13° 271° (W) 22:29:01 437.345
YUBILEINY 26 Jun 22:32:53 22:41:39 77° 95° (E) 22:50:30 435.215
BEESAT 3 26 Jun 22:36:18 22:39:38 25° 316° (NW) 22:43:01 437.485
TIGRISAT 26 Jun 22:38:18 22:42:19 28° 95° (E) 22:46:16 435.000
LO-87 26 Jun 22:40:46 22:43:30 21° 68° (ENE) 22:46:15 145.935 - 145.965
O/OREOS (USA 219) 26 Jun 22:40:59 22:45:21 46° 298° (WNW) 22:49:44 437.305
RS-15 26 Jun 22:41:39 22:53:50 68° 311° (NW) 23:06:12 29.354- 29.394
SO-50 26 Jun 22:58:21 23:02:50 58° 52° (NE) 23:07:20 436.795
